Location: Bouillancy
(49.1149°N, 2.9308°E)
Time: 08:38:24
(UTC+00:00)

Cosmos 1758 - Pass Details

Date: 30 September 2020
Orbit: 540 x 562 km, 82.5° (Epoch: 29 October)

Event Time Altitude Azimuth Distance (km) Brightness Sun altitude
Exits shadow 18:51:08 24° 86° (E) 1,178 4.4 -14.3°
Drops below altitude 10° 18:54:19 10° 35° (NE) 1,848 5.8 -14.8°
Sets 18:56:48 0° 21° (NNE) 2,752 6.8 -15.2°
